Temperature
15 13 13 13 13 14 14 14 13 13 14 14 13 13 14 15 14 14 15 16 17 17 16 16 16 16 15 15 15 14 14 13 12 11 11 10 10 10 10 9 9 9 9 9
13 12 13 13 13 14 13 13 13 12 13 13 12 12 13 12 13 15 15 15 16 16 16 16 15 15 15 15 14 14 13 13 12 11 11 11 10 10 10 10 10 9 9 9
12 13 13 13 13 13 13 13 13 13 13 13 12 12 12 12 13 14 14 15 16 16 17 16 15 15 15 15 14 14 13 13 12 12 11 11 10 10 10 10 10 9 9 9
12 13 13 13 13 12 12 12 13 13 12 11 12 11 12 12 11 11 13 13 14 15 16 16 15 15 15 14 14 14 13 12 12 12 11 11 11 10 10 10 10 9 9 8
12 12 13 13 13 12 13 13 13 13 12 11 10 11 12 11 12 12 12 13 14 15 15 15 15 15 15 14 14 13 13 12 12 12 11 11 11 10 10 10 9 9 9 8
12 12 13 13 13 12 12 12 11 9 10 10 10 10 10 11 13 13 12 13 13 14 14 14 14 14 14 14 13 13 13 12 12 11 11 11 11 10 10 10 9 9 8 8
12 13 13 13 13 13 13 12 11 11 10 10 10 9 10 12 12 11 12 13 14 14 14 14 14 14 14 14 13 13 12 12 12 11 11 11 10 10 10 9 9 9 8 8
11 11 12 12 13 11 11 12 11 11 11 10 10 9 11 12 12 13 13 13 14 14 14 14 14 14 14 13 13 13 12 12 11 11 11 10 10 10 10 9 9 8 8 7
11 11 12 12 12 12 11 11 11 10 10 10 10 10 10 13 13 12 12 12 13 13 14 14 14 14 14 13 13 13 12 12 11 11 11 10 10 10 9 9 8 8 7 7
11 11 12 12 12 12 11 10 9 10 10 10 10 10 11 13 14 12 11 11 12 13 14 14 14 14 13 13 13 12 12 11 11 11 10 10 10 9 9 8 8 7 7 7
11 12 11 11 11 11 10 10 10 9 9 10 10 11 11 12 12 11 11 13 13 14 14 14 14 14 13 13 12 12 11 11 11 10 10 10 9 9 8 8 7 7 6 6
10 10 10 10 11 10 11 10 9 10 9 8 8 11 12 11 11 11 12 14 15 15 15 14 14 13 13 12 12 12 11 11 10 10 10 9 9 8 8 7 7 6 6 6
10 10 10 11 10 10 10 10 10 10 9 7 8 11 12 11 12 13 14 15 15 15 14 14 13 13 13 12 12 12 11 11 10 10 9 9 8 8 7 7 6 6 6 5
11 9 10 11 11 10 9 10 9 9 9 8 8 11 12 12 12 13 15 15 16 15 14 14 14 13 13 12 12 11 11 10 10 9 9 8 8 7 7 6 6 5 5 5
10 10 10 11 11 10 10 10 9 9 10 10 11 11 12 13 12 13 15 15 15 15 14 14 14 13 13 12 12 11 11 10 9 9 8 8 7 7 6 6 5 5 4 4
9 10 10 11 11 10 10 10 10 10 10 10 10 11 12 12 13 13 14 14 14 15 15 14 14 13 13 12 12 11 10 10 9 9 8 8 7 6 6 5 5 5 4 4
8 9 9 9 10 11 10 10 10 9 9 9 11 12 12 11 10 12 14 14 14 15 15 14 14 14 13 13 12 11 10 9 9 8 8 7 6 6 6 5 5 4 4 3
8 8 8 8 10 9 11 11 11 10 10 9 10 10 11 11 13 13 14 14 14 15 15 14 14 13 13 12 11 10 9 9 8 8 7 7 6 6 5 5 4 3 3 2
8 8 7 7 8 9 10 10 10 10 10 10 10 10 11 12 11 12 14 14 14 14 14 14 13 13 12 11 10 9 9 8 8 7 7 6 6 5 4 4 3 3 2 2
7 7 7 6 8 9 11 12 11 11 11 11 10 10 10 9 9 11 13 14 14 13 13 13 12 12 11 10 10 9 8 7 7 6 6 5 5 4 4 3 3 2 2 1
7 7 7 7 8 8 10 11 11 11 11 12 12 11 10 9 11 12 13 13 12 12 12 11 11 11 10 9 9 8 7 7 6 6 5 5 4 3 3 2 2 1 1 0
8 7 6 6 7 9 10 9 10 11 13 13 13 13 12 12 12 12 12 12 11 11 10 10 10 9 9 8 7 7 6 6 5 5 4 4 3 3 2 2 1 1 0 -0
7 9 8 8 10 11 11 12 13 13 13 13 14 14 13 12 12 11 11 11 10 10 9 9 9 8 7 7 6 6 5 5 4 4 3 3 2 2 1 1 0 -0 -1 -1
6 7 7 7 8 9 11 12 13 13 13 14 13 13 13 12 12 11 10 10 9 9 8 8 7 7 6 6 5 5 4 4 3 3 3 2 2 1 1 0 -0 -1 -2 -2
7 6 6 7 8 8 11 13 14 13 13 13 13 12 12 12 11 10 10 9 8 8 7 7 6 6 5 5 4 4 3 3 2 2 2 1 1 0 -0 -1 -1 -2 -2 -3
5 6 7 9 9 9 11 14 14 13 13 13 12 12 11 11 10 10 9 8 8 7 6 6 5 5 4 4 3 3 2 2 2 1 1 0 -0 -1 -1 -2 -2 -3 -3 -4
Wind_Speed
3 4 7 10 10 7 5 5 7 8 6 4 10 15 18 12 9 11 11 11 11 10 5 3 3 4 5 6 7 8 10 9 9 6 5 5 4 3 2 4 5 5 4 4
3 8 10 6 5 4 4 5 7 8 5 4 9 14 14 11 10 11 12 13 12 9 6 6 5 4 4 6 7 8 9 9 9 6 5 4 4 3 3 4 5 5 5 4
11 5 5 7 6 6 6 7 7 8 7 5 7 11 9 9 6 8 9 9 10 12 11 9 7 6 5 6 8 8 9 9 8 8 6 5 5 4 3 2 2 3 4 4
8 6 5 5 7 9 8 8 7 5 4 6 3 7 10 9 9 9 9 8 10 9 10 9 8 7 7 6 6 7 8 8 8 9 8 7 5 4 3 2 2 2 4 4
9 6 8 9 9 11 8 2 3 2 3 5 3 5 11 7 9 10 9 9 9 10 10 10 9 8 7 6 7 7 8 8 8 8 8 8 5 4 3 3 3 2 2 3
6 4 7 8 4 7 6 6 5 5 3 4 5 6 9 6 8 9 7 7 8 9 9 8 7 7 6 6 6 7 9 7 7 8 8 8 8 7 6 3 3 1 0 1
4 4 4 5 6 4 5 5 3 4 2 7 3 5 11 12 9 9 11 9 8 10 10 10 10 10 9 9 8 8 9 8 7 8 7 8 8 8 7 5 4 3 1 1
9 7 8 7 8 8 7 10 7 5 5 6 3 7 10 11 10 9 9 8 7 10 10 11 11 11 10 10 9 9 9 8 8 8 7 6 7 5 4 4 4 4 3 3
11 8 2 5 5 12 8 7 7 5 2 4 7 8 11 8 8 6 5 3 7 10 11 11 10 10 10 10 10 10 10 8 8 8 7 7 6 6 5 4 4 3 3 2
10 6 2 3 5 2 7 9 6 6 4 6 7 6 6 10 10 9 7 6 7 8 9 10 10 10 9 9 8 8 9 9 8 8 7 6 6 6 5 5 4 4 3 3
7 7 2 4 8 10 7 6 6 6 5 6 5 7 7 9 9 10 10 8 7 9 10 10 9 9 9 8 9 8 8 8 8 8 7 7 6 5 5 5 5 4 4 4
8 6 5 7 4 6 8 10 9 7 7 6 5 8 8 8 9 9 10 7 6 7 8 8 9 9 9 10 9 10 9 9 8 8 7 7 6 5 5 5 5 4 4 4
10 8 4 1 1 2 5 6 8 6 5 7 7 9 5 5 7 7 8 7 5 6 7 7 9 10 11 11 10 10 9 9 8 8 7 6 6 6 6 5 5 4 5 5
9 6 8 12 8 8 7 8 9 8 7 8 11 12 13 11 11 10 9 7 6 6 8 9 10 10 10 10 10 10 9 8 8 8 7 7 6 6 6 5 5 5 5 5
8 7 7 7 6 7 9 9 11 12 12 13 12 13 17 13 12 11 9 7 6 7 8 10 11 10 10 10 9 9 9 8 8 8 7 7 6 5 4 4 5 5 5 6
7 7 7 5 6 7 7 9 12 13 11 12 12 14 15 11 8 9 10 8 8 9 10 10 10 11 12 12 11 10 9 8 8 8 7 6 5 4 5 5 5 5 6 6
8 8 7 5 3 2 9 11 13 10 9 11 15 17 12 8 9 10 10 9 10 10 9 9 11 11 11 11 11 11 9 8 8 7 6 5 4 4 5 4 5 6 6 6
10 9 5 5 5 8 10 6 10 11 12 13 11 11 10 10 9 7 7 8 9 8 7 7 7 8 7 7 8 7 7 7 7 6 5 4 4 4 4 4 6 6 5 6
6 9 6 5 6 8 9 6 8 10 11 11 14 14 10 4 3 6 5 6 7 5 5 5 5 6 7 8 8 8 7 6 6 5 5 4 4 4 5 6 7 6 5 6
4 6 6 6 6 8 9 5 5 5 8 8 10 12 8 5 3 7 2 2 2 3 3 5 6 7 7 7 8 8 7 6 5 5 4 4 4 5 6 6 6 5 5 7
6 4 6 6 7 8 9 4 8 6 9 4 6 8 8 8 7 3 1 3 4 4 5 6 7 7 6 7 8 7 5 5 4 3 2 3 3 4 5 5 5 6 6 7
10 9 8 7 6 10 6 9 10 10 4 3 4 5 7 7 3 2 3 4 5 5 6 6 7 6 5 6 7 6 4 3 2 2 2 3 4 4 4 5 6 6 6 8
9 11 9 11 10 5 8 9 7 5 5 5 5 5 6 6 5 4 4 4 5 5 5 5 7 7 5 4 5 5 3 2 1 1 3 4 4 4 5 5 6 6 6 7
5 4 6 5 8 7 7 6 5 6 6 5 5 6 7 7 6 6 5 5 5 5 5 5 7 6 4 3 3 3 2 1 1 2 4 4 5 6 5 5 5 6 7 8
7 8 6 6 6 4 7 9 9 7 6 5 4 5 7 8 6 6 6 6 5 5 4 5 5 5 4 2 1 1 1 1 1 3 4 5 5 6 6 6 6 8 8 9
6 9 9 9 9 8 7 6 7 8 8 8 7 5 4 6 7 6 6 5 5 5 5 4 4 4 3 2 1 1 1 1 2 4 5 5 5 5 6 7 8 12 14 19
Wind_Direction
116 128 200 204 195 193 190 218 255 263 272 271 262 269 276 271 249 246 241 232 228 228 224 187 148 127 121 128 141 152 153 154 150 146 145 140 140 128 105 98 104 105 105 107
93 230 220 184 177 180 198 243 268 284 286 248 276 278 273 264 245 237 232 227 221 212 198 187 167 149 145 145 147 151 155 156 156 152 143 131 128 121 110 100 89 88 94 98
190 218 175 162 175 189 215 218 243 265 314 323 319 299 287 284 261 259 242 226 212 201 195 188 178 170 156 154 157 156 154 151 146 137 122 104 91 83 84 83 83 63 83 89
219 226 154 173 198 182 240 226 223 257 305 296 354 301 289 282 292 272 254 229 213 200 187 184 182 177 174 166 152 144 143 142 142 144 146 144 146 149 159 147 124 70 71 77
222 192 180 201 208 178 212 184 175 231 225 292 277 245 284 306 291 281 262 237 221 201 188 185 183 177 166 155 148 141 135 135 141 145 147 140 133 134 130 117 109 83 50 64
224 205 192 203 189 171 145 81 63 52 77 282 238 208 281 265 251 282 286 248 223 200 187 177 165 155 153 149 144 144 140 138 140 139 141 143 143 143 141 141 146 146 56 25
231 233 208 156 113 105 124 109 3 333 332 254 229 215 254 258 255 259 274 263 222 194 181 175 172 172 169 165 160 155 148 146 147 143 144 149 150 154 160 166 172 174 190 226
184 237 206 185 168 165 175 158 175 218 241 282 268 238 257 266 275 272 269 257 206 189 187 187 185 180 176 173 167 162 159 154 156 152 152 152 152 154 162 169 172 186 199 216
182 222 230 190 168 146 152 194 173 148 208 268 271 280 298 294 303 304 303 259 209 198 193 191 185 182 179 177 176 171 165 160 163 161 155 157 159 162 168 171 176 190 206 215
153 194 231 144 99 65 154 148 122 152 203 252 275 270 255 291 302 312 303 270 238 208 197 194 189 187 183 178 172 169 168 169 167 165 165 165 170 173 171 171 187 201 213 215
142 155 147 144 184 178 136 150 152 159 176 188 254 265 231 245 274 293 290 269 236 213 204 198 192 185 176 170 170 174 174 168 169 172 170 167 174 174 172 185 202 207 214 222
149 141 189 226 229 186 175 175 157 175 216 200 212 264 264 253 271 276 284 277 240 216 205 194 183 175 176 180 180 181 179 178 179 174 171 175 176 176 186 204 214 213 224 232
149 145 145 341 339 168 200 195 188 165 157 182 205 259 285 293 289 280 279 281 251 215 199 187 182 187 189 188 186 185 184 183 175 169 171 176 184 192 205 215 220 222 229 241
145 149 181 197 202 179 194 202 185 172 198 220 225 248 274 283 285 288 285 271 245 217 202 194 195 196 193 189 187 185 184 178 171 169 174 186 198 204 212 217 223 229 234 244
147 182 198 207 189 172 195 200 190 200 209 219 236 240 255 259 258 266 272 263 239 227 212 205 203 198 191 187 186 184 181 177 172 171 184 200 202 203 209 221 231 238 243 249
153 175 177 216 209 200 224 223 207 216 224 232 251 261 257 261 259 262 262 249 241 236 224 212 203 195 193 191 187 182 182 178 170 178 192 194 193 204 219 231 238 247 255 258
159 144 154 216 204 164 251 222 210 212 209 201 230 246 257 260 253 250 253 243 238 238 226 211 203 199 196 190 183 182 179 166 168 180 187 192 199 217 231 239 245 253 258 259
155 149 148 156 138 226 243 216 206 218 232 217 229 244 246 244 254 253 244 238 243 235 219 208 196 189 180 168 163 156 151 158 167 177 190 200 207 228 240 245 253 258 258 260
152 144 137 153 202 262 285 249 192 202 251 228 228 247 255 257 298 287 246 225 228 221 202 187 174 162 149 150 148 141 145 152 164 185 201 210 214 230 242 251 259 262 264 268
94 124 136 151 185 230 242 230 167 138 267 250 217 237 235 159 229 269 279 183 172 144 133 132 128 125 133 137 136 137 148 158 184 199 208 214 217 228 243 253 262 264 264 270
132 135 161 173 209 251 246 190 132 175 242 249 207 217 193 196 216 239 110 104 114 107 108 117 119 122 131 132 131 137 149 182 195 187 200 224 233 240 249 258 263 270 276 280
168 168 181 164 197 245 212 148 181 214 219 200 198 197 194 206 196 162 135 119 114 108 107 115 115 111 113 124 129 136 166 182 159 173 223 248 254 259 263 263 272 272 275 282
193 187 183 190 211 226 179 194 210 188 196 204 197 196 176 180 187 171 154 140 129 125 121 116 119 114 109 119 130 145 171 154 155 210 255 266 270 267 264 264 273 280 276 279
234 172 159 214 248 239 226 233 231 204 205 204 190 177 168 176 176 167 156 147 138 129 127 123 123 124 126 128 130 150 160 158 178 249 268 273 276 278 274 267 265 270 274 277
192 166 177 223 254 271 254 225 219 211 203 188 174 175 175 167 169 168 163 157 149 137 130 134 138 141 147 143 144 162 175 168 240 265 272 277 273 273 278 273 264 269 260 266
182 174 180 214 213 197 227 223 193 190 198 189 173 165 163 167 166 157 156 151 145 141 136 134 135 138 146 151 190 244 231 214 246 275 278 277 278 279 279 283 288 279 278 285
Height
1519 1525 1528 1527 1527 1529 1532 1535 1536 1532 1525 1525 1524 1518 1509 1504 1504 1502 1500 1501 1502 1504 1507 1508 1510 1512 1514 1515 1518 1520 1524 1527 1531 1534 1537 1540 1542 1544 1545 1546 1547 1547 1547 1547
1523 1524 1519 1521 1525 1528 1531 1534 1535 1530 1524 1524 1523 1515 1504 1498 1496 1494 1493 1493 1495 1499 1502 1504 1507 1509 1511 1513 1516 1518 1521 1525 1528 1532 1535 1538 1540 1542 1543 1544 1544 1544 1544 1544
1519 1517 1516 1520 1524 1528 1530 1533 1531 1530 1526 1523 1524 1515 1503 1494 1490 1488 1487 1487 1490 1493 1496 1500 1503 1506 1509 1511 1514 1516 1519 1523 1526 1529 1533 1535 1537 1539 1540 1541 1542 1542 1541 1541
1516 1514 1515 1519 1522 1525 1530 1525 1526 1527 1531 1534 1529 1530 1506 1496 1490 1485 1483 1483 1484 1487 1492 1496 1499 1503 1506 1509 1512 1515 1518 1521 1524 1527 1530 1532 1535 1536 1538 1539 1539 1539 1539 1538
1512 1511 1513 1516 1516 1520 1522 1520 1524 1526 1529 1534 1531 1533 1510 1498 1491 1482 1479 1479 1480 1483 1487 1492 1496 1500 1503 1507 1510 1512 1515 1519 1522 1525 1528 1530 1532 1534 1535 1536 1536 1536 1536 1535
1507 1506 1507 1508 1509 1514 1517 1523 1528 1534 1536 1539 1530 1533 1518 1499 1488 1481 1477 1476 1477 1481 1485 1489 1494 1498 1501 1504 1507 1510 1513 1517 1520 1523 1525 1528 1530 1531 1532 1533 1533 1533 1532 1532
1508 1506 1504 1505 1510 1514 1517 1528 1539 1538 1541 1538 1527 1529 1514 1487 1482 1480 1476 1474 1475 1478 1482 1486 1490 1494 1498 1501 1505 1508 1511 1514 1517 1520 1523 1525 1527 1528 1529 1530 1530 1530 1529 1528
1511 1511 1503 1502 1505 1512 1517 1521 1535 1539 1540 1535 1526 1526 1501 1481 1477 1475 1474 1472 1472 1474 1478 1482 1487 1491 1495 1499 1502 1506 1509 1512 1515 1518 1520 1522 1524 1525 1526 1526 1526 1526 1525 1525
1503 1505 1497 1497 1498 1504 1515 1519 1518 1530 1533 1535 1527 1515 1497 1477 1474 1473 1471 1470 1470 1472 1476 1480 1485 1489 1493 1496 1500 1504 1507 1510 1513 1515 1518 1519 1521 1522 1523 1523 1523 1522 1521 1521
1491 1501 1497 1497 1499 1502 1505 1511 1524 1529 1534 1533 1525 1517 1503 1483 1476 1473 1471 1470 1469 1471 1474 1478 1482 1486 1491 1495 1498 1502 1505 1508 1510 1513 1515 1516 1518 1519 1519 1519 1519 1518 1517 1516
1485 1495 1500 1499 1499 1503 1508 1511 1514 1522 1526 1530 1527 1512 1487 1481 1476 1474 1470 1468 1468 1469 1472 1475 1479 1484 1488 1492 1495 1498 1502 1504 1507 1509 1511 1513 1514 1515 1515 1515 1515 1514 1513 1512
1481 1492 1500 1498 1494 1493 1496 1501 1508 1518 1521 1525 1524 1507 1476 1476 1473 1472 1469 1467 1467 1468 1470 1473 1477 1481 1484 1488 1491 1495 1498 1501 1504 1506 1508 1509 1510 1511 1511 1511 1510 1509 1508 1506
1477 1488 1499 1499 1500 1497 1496 1497 1499 1503 1511 1521 1520 1501 1474 1473 1471 1469 1467 1466 1466 1466 1468 1471 1473 1476 1479 1483 1487 1490 1494 1497 1500 1502 1504 1505 1506 1506 1506 1506 1505 1504 1503 1501
1467 1480 1485 1490 1488 1489 1493 1493 1496 1500 1506 1509 1505 1490 1477 1472 1469 1466 1465 1464 1464 1464 1465 1467 1469 1471 1475 1478 1482 1486 1489 1493 1496 1498 1499 1501 1502 1502 1502 1501 1500 1499 1497 1496
1465 1475 1477 1477 1477 1482 1482 1484 1489 1491 1490 1491 1485 1482 1471 1467 1465 1463 1462 1461 1460 1460 1461 1462 1464 1467 1470 1474 1478 1481 1485 1488 1491 1493 1495 1496 1497 1497 1497 1496 1495 1493 1492 1490
1464 1470 1475 1475 1475 1478 1479 1478 1481 1482 1481 1482 1479 1474 1461 1460 1460 1459 1457 1457 1456 1456 1456 1457 1459 1462 1465 1469 1472 1476 1480 1484 1486 1488 1490 1492 1492 1492 1491 1490 1489 1487 1485 1483
1463 1469 1476 1479 1475 1476 1479 1472 1472 1473 1472 1472 1471 1462 1455 1457 1455 1454 1452 1452 1452 1452 1452 1453 1455 1458 1461 1464 1468 1472 1476 1479 1482 1484 1485 1486 1487 1486 1486 1485 1483 1481 1479 1476
1458 1465 1473 1479 1479 1484 1465 1457 1458 1461 1459 1459 1456 1452 1450 1450 1449 1449 1448 1448 1448 1448 1449 1450 1452 1455 1458 1461 1465 1468 1472 1475 1477 1479 1480 1481 1481 1481 1480 1478 1476 1474 1472 1469
1450 1460 1474 1480 1478 1472 1462 1454 1454 1458 1455 1449 1449 1446 1446 1446 1447 1444 1443 1444 1444 1445 1447 1448 1450 1453 1455 1458 1461 1465 1467 1470 1473 1474 1476 1476 1476 1475 1473 1471 1470 1467 1465 1462
1452 1455 1467 1475 1474 1471 1455 1445 1445 1451 1453 1441 1441 1441 1442 1445 1449 1443 1441 1441 1442 1443 1445 1446 1448 1451 1453 1456 1459 1461 1464 1466 1468 1470 1471 1471 1470 1469 1467 1465 1463 1460 1457 1454
1455 1459 1464 1469 1468 1461 1445 1442 1445 1456 1448 1437 1436 1437 1438 1440 1441 1440 1439 1440 1441 1442 1444 1445 1447 1449 1452 1454 1456 1458 1461 1463 1465 1466 1466 1465 1464 1463 1461 1459 1456 1453 1450 1446
1444 1454 1460 1463 1464 1457 1436 1440 1443 1438 1433 1433 1433 1434 1435 1436 1437 1437 1438 1439 1440 1441 1443 1445 1446 1448 1451 1453 1455 1456 1458 1460 1461 1461 1461 1460 1459 1457 1455 1452 1449 1446 1443 1438
1435 1433 1437 1441 1438 1430 1429 1429 1429 1430 1430 1431 1432 1432 1433 1434 1435 1436 1437 1438 1439 1441 1442 1444 1446 1448 1449 1451 1453 1454 1455 1456 1456 1456 1455 1454 1453 1451 1448 1445 1442 1439 1435 1431
1430 1428 1432 1434 1429 1425 1425 1425 1426 1427 1428 1428 1430 1431 1431 1432 1433 1434 1436 1437 1438 1440 1441 1443 1445 1446 1448 1450 1451 1452 1452 1452 1451 1451 1450 1448 1446 1444 1441 1438 1435 1431 1427 1423
1419 1424 1427 1427 1423 1421 1420 1420 1421 1423 1424 1425 1427 1428 1429 1430 1431 1432 1434 1435 1437 1439 1440 1442 1443 1445 1446 1447 1448 1448 1448 1447 1446 1445 1444 1442 1439 1436 1433 1430 1427 1423 1419 1416
1414 1417 1420 1418 1414 1416 1415 1415 1417 1419 1420 1422 1424 1425 1426 1428 1429 1430 1432 1434 1435 1437 1439 1440 1442 1443 1444 1445 1445 1445 1444 1443 1441 1439 1437 1435 1432 1429 1425 1421 1417 1414 1412 1408